Location: Kumla
(59.1265°N, 15.1401°E)
Time: 14:46:17
(UTC+01:00)

Transit 2A - Pass Details

Date: 03 December 2023
Orbit: 600 x 953 km, 66.7° (Epoch: 21 February)

Event Time Altitude Azimuth Distance (km) Brightness Sun altitude
Rises 20:37:26 0° 290° (WNW) 2,981 9.9 -39.9°
Reaches altitude 10° 20:40:00 10° 301° (WNW) 2,028 8.9 -40.2°
Enters shadow 20:40:10 11° 302° (WNW) 1,965 8.8 -40.2°
Maximum altitude 20:44:03 31° 5° (N) 1,077 - -40.7°
Drops below altitude 10° 20:47:58 10° 69° (ENE) 1,954 - -41.1°
Sets 20:50:24 0° 80° (E) 2,855 - -41.4°
